Orbital Elements at Epoch 2459200.5 (2020-Dec-17.0) TDB
Reference: JPL 23 (heliocentric ecliptic J2000)
Element | Value | Uncertainty (1-sigma) | Units |
e | .1319183074504488 | 5.7289e-08 | |
a | 2.684223962092386 | 1.5738e-08 | au |
q | 2.33012568019522 | 1.5878e-07 | au |
i | 3.249796317611398 | 4.6594e-06 | deg |
node | 224.1929398266432 | 9.3488e-05 | deg |
peri | 276.2155159305355 | 9.5387e-05 | deg |
M | 333.3639107750949 | 1.7289e-05 | deg |
tp | 2459319.348720510498 (2021-Apr-14.84872051) | 7.7182e-05 | TDB |
period | 1606.299596855762 4.40 | 1.4127e-05 3.868e-08 | d yr |
n | .2241175934456306 | 1.9711e-09 | deg/d |
Q | 3.038322243989551 | 1.7815e-08 | au |
|
| | Orbit Determination Parameters
Additional Information
|